Flag for Czech Republic Weather past 2 weeks in Ostrava, Czech Republic

Now
47 °F

Overcast.


Feels Like: 46 °F
Forecast: 38 / 59 °F
Wind: 3 mph from Southwest

Location: Ostrava / Mosnov

Current Time: Sep 23, 2014 at 7:07:27 AM

Latest Report: Sep 23, 2014 at 6:00 AM


Visibility: 9 mi

Pressure: 29.90 "Hg

Humidity: 89%

Dew point: 44 °F

Location of OstravaLocation

Historic Weather in Ostrava — Graph

°F

Ostrava temperature yesterday

Maximum temperature yesterday: 61 °F (at 12:00 AM)
Minimum temperature yesterday: 49 °F (at 11:00 PM)
Average temperature yesterday: 55 °F

Past Weeks' High & Low Weather Summary

 TemperatureHumidityPressure
High78 °F (Sep 8, 2:00 PM)100% (Sep 12, 9:00 PM)30.14 "Hg (Sep 12, 9:00 PM)
Low47 °F (Sep 23, 4:00 AM)45% (Sep 8, 4:00 PM)29.75 "Hg (Sep 22, 3:00 AM)
Average61 °F84%30.00 "Hg
* Reported Sep 8 5:00 AM — Sep 23 5:00 AM, Ostrava, Weather by CustomWeather, © 2014

Note: Actual official high and low records may vary slightly from our data, if they occured in-between our weather recording intervals... More about our weather records

Advertising

Ostrava weather history for previous 24 hours

 ConditionsComfort  
Time TempWeatherWind HumidityBarometerVisibility
5:00 AM
Sep 23
47 °FOvercast.5 mph90%29.90 "Hg9 mi
4:00 AM47 °FOvercast.5 mph89%29.90 "Hg12 mi
3:00 AM47 °FOvercast.5 mph81%29.90 "Hg12 mi
2:00 AM48 °FOvercast.6 mph77%29.90 "Hg12 mi
1:00 AM49 °FPassing clouds.5 mph79%29.90 "Hg12 mi
12:00 AM49 °FPassing clouds.2 mph83%29.89 "Hg12 mi
11:00 PM
Sep 22
49 °FPassing clouds.3 mph86%29.89 "Hg12 mi
10:00 PM51 °FPassing clouds.5 mph79%29.88 "Hg12 mi
9:00 PM51 °FPassing clouds.5 mph81%29.85 "Hg12 mi
8:00 PM52 °FPassing clouds.3 mph80%29.86 "Hg12 mi
7:00 PM52 °FPassing clouds.5 mph73%29.84 "Hg12 mi
6:00 PM56 °FPartly sunny.N/A65%29.82 "Hg12 mi
5:00 PM55 °FPartly sunny.2 mph74%29.83 "Hg12 mi
4:00 PM59 °FPartly sunny.3 mph52%29.80 "Hg12 mi
3:00 PM58 °FOvercast.5 mph58%29.81 "Hg16 mi
2:00 PM61 °FPartly sunny.8 mph58%29.80 "Hg16 mi
1:00 PM58 °FPartly sunny.9 mph66%29.82 "Hg16 mi
12:00 PM56 °FSprinkles. Overcast.6 mph71%29.83 "Hg9 mi
11:00 AM56 °FOvercast.6 mph75%29.83 "Hg11 mi
10:00 AM56 °FOvercast.5 mph84%29.84 "Hg12 mi
9:00 AM53 °FOvercast.3 mph88%29.84 "Hg12 mi
8:00 AM52 °FLight rain. Overcast.2 mph94%29.83 "Hg9 mi
7:00 AM51 °FRain. Overcast.2 mph92%29.84 "Hg6 mi
Weather by CustomWeather, © 2014

See weather overviewHow to use our weather pages